NANOZOND 1 (RS49S)

Last updated on Mon Oct 27 2025 00:03:16 GMT+0000 (Coordinated Universal Time)

1 57190U 23091AA 25299.53708543 .00058292 00000+0 11892-2 0 9997 2 57190 97.5372 7.3283 0005660 159.1172 201.0309 15.45995844129396
UTC large
Height (km)
Speed (km/s)
/
Latitude / Longitude
Inclination (degrees)
Orbital Period (minutes)
Azimuth
Elevation
Range (km)
Doppler Factor

Next 0 passes for location: London (51.5072 / 0.1276)

Sorry there are no passes over London.